Weather History for KRCE - April, 2013

Change the Weather History Date:

Monday, April 22, 2013

  Actual Average (KOKC) Record (KOKC)
Temperature  
Mean Temperature 62 °F 63 °F  
Max Temperature 75 °F 74 °F 95 °F (1955)
Min Temperature 50 °F 52 °F 34 °F (1959)
Degree Days  
Heating Degree Days 2 4  
Month to date heating degree days 146  
Since 1 July heating degree days 3305  
Cooling Degree Days 0 2  
Month to date cooling degree days 32  
Year to date cooling degree days 45  
Growing Degree Days 12 (Base 50)    
Moisture  
Dew Point 51 °F    
Average Humidity 65    
Maximum Humidity 88    
Minimum Humidity 50    
Precipitation  
Precipitation 0.09 in 0.10 in 1.98 in (1915)
Month to date precipitation 2.05  
Year to date precipitation 8.08  
Snow  
Snow 0.00 in 0.00 in T in (1955)
Month to date snowfall 0.0  
Since 1 July snowfall 7.6  
Snow Depth -    
Sea Level Pressure  
Sea Level Pressure 29.94 in    
Wind  
Wind Speed 16 mph (SSE)    
Max Wind Speed 28 mph    
Max Gust Speed 64 mph    
Visibility 10 miles    
Events Rain , Thunderstorm    
T = Trace of Precipitation, MM = Missing Value Source: NWS Daily Summary

Daily Weather History Graph

Daily Weather History Graph

Search for Another Location

Airport or City:

Trip Planner

Search our weather history database for the weather conditions in past years. The results will help you decide how hot, cold, wet, or windy it might be!

Date:

Astronomy

Apr. 22, 2013 Rise Set
Actual Time 6:49 AM CDT 8:10 PM CDT
Civil Twilight 6:22 AM CDT 8:37 PM CDT
Nautical Twilight 5:51 AM CDT 9:09 PM CDT
Astronomical Twilight 5:17 AM CDT 9:42 PM CDT
Moon 5:06 PM CDT (4/22) 4:37 AM CDT (4/22)
Length of Visible Light 14h 14m
Length of Day
13h 20m
Waxing Gibbous, 88% of the Moon is Illuminated
Apr 22
Waxing Gibbous
Apr 25
Full
May 2
Last Quarter
May 9
New
May 17
First Quarter

Hourly Weather History & Observations

Time (CDT) Temp. Dew Point Humidity Pressure Visibility Wind Dir Wind Speed Gust Speed Precip Events Conditions
12:15 AM 55.4 °F 46.4 °F 72% 30.10 in 10.0 mi SE 11.5 mph - N/A   Partly Cloudy
12:35 AM 55.4 °F 46.4 °F 72% 30.09 in 10.0 mi SE 15.0 mph - N/A   Clear
12:55 AM 55.4 °F 44.6 °F 67% 30.08 in 10.0 mi SSE 12.7 mph - N/A   Clear
1:15 AM 55.4 °F 44.6 °F 67% 30.08 in 10.0 mi SSE 13.8 mph - N/A   Clear
1:35 AM 53.6 °F 44.6 °F 72% 30.09 in 10.0 mi SSE 11.5 mph - N/A   Scattered Clouds
1:55 AM 53.6 °F 44.6 °F 72% 30.08 in 10.0 mi SSE 11.5 mph - N/A   Partly Cloudy
2:15 AM 51.8 °F 44.6 °F 76% 30.08 in 10.0 mi SSE 11.5 mph - N/A   Partly Cloudy
2:35 AM 53.6 °F 44.6 °F 72% 30.07 in 10.0 mi SSE 13.8 mph - N/A   Scattered Clouds
2:55 AM 53.6 °F 44.6 °F 72% 30.07 in 10.0 mi SSE 13.8 mph - N/A   Scattered Clouds
3:15 AM 53.6 °F 44.6 °F 72% 30.06 in 10.0 mi South 11.5 mph - N/A   Partly Cloudy
3:35 AM 53.6 °F 44.6 °F 72% 30.06 in 10.0 mi SSE 11.5 mph - N/A   Partly Cloudy
3:55 AM 53.6 °F 44.6 °F 72% 30.05 in 10.0 mi SSE 11.5 mph - N/A   Scattered Clouds
4:15 AM 51.8 °F 44.6 °F 76% 30.05 in 10.0 mi SSE 13.8 mph 17.3 mph N/A   Scattered Clouds
4:35 AM 51.8 °F 42.8 °F 71% 30.04 in 10.0 mi SSE 12.7 mph - N/A   Mostly Cloudy
4:55 AM 51.8 °F 44.6 °F 76% 30.04 in 10.0 mi SSE 12.7 mph - N/A   Mostly Cloudy
5:15 AM 50.0 °F 42.8 °F 76% 30.04 in 10.0 mi SSE 12.7 mph - N/A   Partly Cloudy
5:35 AM 50.0 °F 44.6 °F 82% 30.05 in 10.0 mi SSE 10.4 mph - N/A   Partly Cloudy
5:55 AM 50.0 °F 42.8 °F 76% 30.04 in 10.0 mi SSE 10.4 mph - N/A   Mostly Cloudy
6:15 AM 50.0 °F 42.8 °F 76% 30.05 in 10.0 mi SSE 11.5 mph - N/A   Mostly Cloudy
6:35 AM 50.0 °F 42.8 °F 76% 30.05 in 10.0 mi SSE 11.5 mph - N/A   Mostly Cloudy
6:55 AM 50.0 °F 42.8 °F 76% 30.04 in 10.0 mi SSE 12.7 mph - N/A   Partly Cloudy
7:15 AM 50.0 °F 44.6 °F 82% 30.04 in 10.0 mi SSE 12.7 mph - N/A   Clear
7:55 AM 53.6 °F 44.6 °F 72% 30.03 in 10.0 mi North - - N/A   Scattered Clouds
8:15 AM 53.6 °F 44.6 °F 72% 30.03 in 10.0 mi SSE 13.8 mph - N/A   Mostly Cloudy
8:35 AM 55.4 °F 44.6 °F 67% 30.02 in 10.0 mi SSE 19.6 mph - N/A   Mostly Cloudy
8:55 AM 55.4 °F 44.6 °F 67% 30.01 in 10.0 mi SSE 18.4 mph 24.2 mph N/A   Mostly Cloudy
9:15 AM 57.2 °F 46.4 °F 67% 30.01 in 10.0 mi South 19.6 mph 25.3 mph N/A   Mostly Cloudy
9:35 AM 59.0 °F 46.4 °F 63% 30.01 in 10.0 mi South 18.4 mph 24.2 mph N/A   Partly Cloudy
9:55 AM 60.8 °F 48.2 °F 63% 30.02 in 10.0 mi South 16.1 mph 26.5 mph N/A   Clear
10:15 AM 60.8 °F 48.2 °F 63% 30.02 in 10.0 mi South 20.7 mph 26.5 mph N/A   Mostly Cloudy
10:35 AM 62.6 °F 50.0 °F 63% 30.01 in 10.0 mi South 19.6 mph 28.8 mph N/A   Mostly Cloudy
10:55 AM 64.4 °F 50.0 °F 59% 30.00 in 10.0 mi South 23.0 mph 29.9 mph N/A   Partly Cloudy
11:15 AM 66.2 °F 50.0 °F 56% 29.98 in 10.0 mi South 24.2 mph 31.1 mph N/A   Clear
11:35 AM 66.2 °F 51.8 °F 60% 29.97 in 10.0 mi South 25.3 mph 33.4 mph N/A   Clear
11:55 AM 68.0 °F 53.6 °F 60% 29.96 in 10.0 mi South 27.6 mph 34.5 mph N/A   Clear
12:15 PM 68.0 °F 53.6 °F 60% 29.96 in 10.0 mi South 25.3 mph 35.7 mph N/A   Clear
12:35 PM 68.0 °F 55.4 °F 64% 29.94 in 10.0 mi South 26.5 mph 33.4 mph N/A   Clear
12:55 PM 69.8 °F 55.4 °F 60% 29.94 in 10.0 mi South 26.5 mph 35.7 mph N/A   Clear
1:15 PM 71.6 °F 55.4 °F 57% 29.93 in 10.0 mi South 24.2 mph 36.8 mph N/A   Clear
1:35 PM 71.6 °F 55.4 °F 57% 29.92 in 10.0 mi South 24.2 mph 31.1 mph N/A   Partly Cloudy
1:55 PM 71.6 °F 55.4 °F 57% 29.91 in 10.0 mi South 20.7 mph 35.7 mph N/A   Partly Cloudy
2:15 PM 71.6 °F 55.4 °F 57% 29.90 in 10.0 mi South 20.7 mph 28.8 mph N/A   Mostly Cloudy
2:35 PM 71.6 °F 55.4 °F 57% 29.89 in 10.0 mi South 21.9 mph 28.8 mph N/A   Overcast
2:55 PM 71.6 °F 55.4 °F 57% 29.88 in 10.0 mi SSW 21.9 mph 32.2 mph N/A   Mostly Cloudy
3:15 PM 73.4 °F 57.2 °F 57% 29.87 in 10.0 mi South 25.3 mph 31.1 mph N/A   Partly Cloudy
3:35 PM 73.4 °F 55.4 °F 53% 29.86 in 10.0 mi South 21.9 mph 31.1 mph N/A   Scattered Clouds
3:55 PM 73.4 °F 55.4 °F 53% 29.85 in 10.0 mi South 20.7 mph 29.9 mph N/A   Scattered Clouds
4:15 PM 73.4 °F 55.4 °F 53% 29.84 in 10.0 mi South 20.7 mph 28.8 mph N/A   Scattered Clouds
4:35 PM 73.4 °F 55.4 °F 53% 29.84 in 10.0 mi South 19.6 mph 25.3 mph N/A   Mostly Cloudy
4:55 PM 75.2 °F 55.4 °F 50% 29.83 in 10.0 mi South 13.8 mph 26.5 mph N/A   Scattered Clouds
5:15 PM 75.2 °F 55.4 °F 50% 29.83 in 10.0 mi South 20.7 mph 26.5 mph N/A   Mostly Cloudy
5:35 PM 73.4 °F 55.4 °F 53% 29.83 in 10.0 mi South 18.4 mph 26.5 mph N/A   Scattered Clouds
5:55 PM 73.4 °F 57.2 °F 57% 29.83 in 10.0 mi South 20.7 mph 26.5 mph N/A   Partly Cloudy
6:15 PM 73.4 °F 55.4 °F 53% 29.83 in 10.0 mi South 15.0 mph - N/A   Clear
6:35 PM 73.4 °F 55.4 °F 53% 29.82 in 10.0 mi South 15.0 mph 19.6 mph N/A   Clear
6:55 PM 73.4 °F 55.4 °F 53% 29.81 in 10.0 mi SSE 15.0 mph 20.7 mph N/A   Clear
7:15 PM 71.6 °F 55.4 °F 57% 29.80 in 10.0 mi SSE 15.0 mph - N/A   Clear
7:35 PM 71.6 °F 55.4 °F 57% 29.78 in 10.0 mi SSE 16.1 mph 19.6 mph N/A   Clear
7:55 PM 69.8 °F 55.4 °F 60% 29.78 in 10.0 mi SSE 15.0 mph - N/A   Clear
8:15 PM 68.0 °F 53.6 °F 60% 29.80 in 10.0 mi SSE 19.6 mph 23.0 mph N/A   Clear
8:35 PM 68.0 °F 55.4 °F 64% 29.81 in 10.0 mi SE 15.0 mph - N/A   Clear
8:55 PM 68.0 °F 55.4 °F 64% 29.81 in 10.0 mi SE 15.0 mph 23.0 mph N/A   Partly Cloudy
9:15 PM 68.0 °F 55.4 °F 64% 29.81 in 10.0 mi SE 15.0 mph 21.9 mph N/A   Partly Cloudy
9:35 PM 68.0 °F 55.4 °F 64% 29.81 in 10.0 mi ESE 18.4 mph 23.0 mph N/A   Scattered Clouds
9:55 PM 66.2 °F 55.4 °F 68% 29.82 in 10.0 mi SE 19.6 mph 26.5 mph N/A   Mostly Cloudy
10:15 PM 66.2 °F 57.2 °F 73% 29.83 in 10.0 mi ESE 19.6 mph 25.3 mph N/A   Mostly Cloudy
10:35 PM 66.2 °F 55.4 °F 68% 29.83 in 10.0 mi East 18.4 mph 27.6 mph N/A   Mostly Cloudy
10:55 PM 66.2 °F 57.2 °F 73% 29.84 in 10.0 mi East 19.6 mph - N/A Thunderstorm Mostly Cloudy
11:15 PM 66.2 °F 57.2 °F 73% 29.82 in 10.0 mi East 21.9 mph 32.2 mph N/A Thunderstorm Thunderstorm
11:35 PM 64.4 °F 57.2 °F 77% 29.92 in 0.2 mi North 13.8 mph 64.4 mph 0.08 in Rain , Thunderstorm Light Rain
11:55 PM 62.6 °F 59.0 °F 88% 29.89 in 10.0 mi ESE 8.1 mph - 0.09 in Rain Light Rain